www.pogodaiklimat.ru

Погода и климат >> Архив погоды >> Бразилия >> Campos Sales


ПОГОДА в Campos Sales

  • Прогноз погоды в Campos Sales
  • Монитор погоды в Campos Sales
  • Климат города

АРХИВ ПОГОДЫ в Campos Sales

Время (UTC), дата Ветер
(напр.,м/с)
 
Видим.   Явления Облачность Т
(С)
Тd
(С)
f
(%)
Тe
(С)
Тes
(С)
Комфортность P
(гПа)
Po
(гПа)
Тmin
(С)
Tmax
(С)
R
(мм)
R24
(мм)
S
(см)
13 9.10 штиль 0
{4}
н/о н/о +30.3 +24.0 69 +42 +42 опасность
перегрева
1013.7 949.8
14 9.10 штиль 0
{3}
н/о н/о +32.3 +25.8 69 +48 +48 опасность
перегрева
1012.5 949.1
15 9.10 штиль 0
{3}
н/о н/о +33.7 +27.2 69 +52 +52 опасность
перегрева
1010.9 947.9
16 9.10 штиль 0
{3}
н/о н/о +34.3 +27.8 69 +54 +54 опасность
перегрева
1009.4 946.6
17 9.10 штиль 0
{3}
н/о н/о +34.5 +27.9 69 +55 +55 опасность
перегрева
1008.5 945.8
18 9.10 штиль 0 н/о н/о +34.6 +28.0 69 +56 +56 опасность
перегрева
1007.2 945.2
19 9.10 штиль 0
{2}
н/о н/о +34.1 +27.6 69 +54 +54 опасность
перегрева
1007.8 945.0
20 9.10 штиль 0 н/о н/о +33.1 +26.6 69 +50 +50 опасность
перегрева
1008.1 945.1
21 9.10 штиль 0 н/о н/о +31.2 +24.8 69 +44 +44 опасность
перегрева
1008.9 945.5
22 9.10 штиль 0 н/о н/о +29.4 +23.1 69 +39 +39 очень
душно
1009.8 946.0
23 9.10 штиль 0 н/о н/о +27.9 +21.7 69 +36 +36 очень
душно
1010.7 946.5
00 10.10 штиль 0 н/о н/о +27.3 +21.1 69 +34 +34 очень
душно
1010.6 946.9 +35.4
01 10.10 штиль 0 н/о н/о +25.5 +19.4 69 +31 +31 очень
душно
1012.2 947.4
02 10.10 штиль 0 н/о н/о +25.6 +19.4 69 +31 +31 очень
душно
1012.1 947.3
03 10.10 штиль 0 н/о н/о +25.9 +19.7 69 +32 +32 очень
душно
1011.3 946.7
04 10.10 штиль 0 н/о н/о +23.9 +17.8 69 +28 +28 душно 1011.4 946.3
05 10.10 штиль 0 н/о н/о +23.7 +17.7 69 +28 +28 душно 1011.7 946.6
06 10.10 штиль 0 н/о н/о +22.1 +16.1 69 +26 +26 душно 1011.4 946.6
07 10.10 штиль 0 н/о н/о +21.6 +15.7 69 +25 +25 комфорт 1012.4 946.8
08 10.10 штиль 0 н/о н/о +21.0 +15.1 69 +24 +24 комфорт 1013.0 947.2
09 10.10 штиль 0 н/о н/о +22.1 +16.1 69 +26 +26 душно 1013.7 948.1
10 10.10 штиль 0
{1}
н/о н/о +25.0 +18.9 69 +30 +30 душно 1013.9 948.9
11 10.10 штиль 0
{2}
н/о н/о +27.0 +20.8 69 +34 +34 очень
душно
1013.8 949.2
12 10.10 штиль 0 н/о н/о +29.2 +22.8 68 +39 +39 очень
душно
1012.4 949.0 +20.8
13 10.10 штиль 0
{1}
н/о н/о +31.0 +24.6 69 +44 +44 опасность
перегрева
1012.5 948.8
14 10.10 штиль 0
{3}
н/о н/о +31.8 +25.4 69 +46 +46 опасность
перегрева
1011.4 948.0
15 10.10 штиль 0 н/о н/о +32.9 +26.4 69 +50 +50 опасность
перегрева
1009.8 946.7
16 10.10 штиль 0 н/о н/о +34.3 +27.8 69 +54 +54 опасность
перегрева
1008.2 945.5
17 10.10 штиль 0
{2}
н/о н/о +34.7 +28.1 69 +56 +56 опасность
перегрева
1007.2 944.6
18 10.10 штиль 0 н/о н/о +35.2 +28.6 69 +58 +58 опасность
перегрева
1005.8 944.0
19 10.10 штиль 0 н/о н/о +33.7 +27.2 69 +52 +52 опасность
перегрева
1006.9 944.1
20 10.10 штиль 0 н/о н/о +33.3 +26.8 69 +51 +51 опасность
перегрева
1007.4 944.5
21 10.10 штиль 0 н/о н/о +32.5 +26.1 69 +48 +48 опасность
перегрева
1008.0 944.9
22 10.10 штиль 0 н/о н/о +31.2 +24.8 69 +44 +44 опасность
перегрева
1009.0 945.6
23 10.10 штиль 0 н/о н/о +30.2 +23.8 69 +42 +42 опасность
перегрева
1009.9 946.2
00 11.10 штиль 0 н/о н/о +29.5 +23.1 69 +40 +40 очень
душно
1010.6 947.4 +36.0
01 11.10 штиль 0
{2}
н/о н/о +28.1 +21.9 69 +36 +36 очень
душно
1011.8 947.6
02 11.10 штиль 0 н/о н/о +26.8 +20.6 69 +33 +33 очень
душно
1011.8 947.3
03 11.10 штиль 0 н/о н/о +25.9 +19.7 69 +32 +32 очень
душно
1011.6 946.9
04 11.10 штиль 0 н/о н/о +25.3 +19.2 69 +30 +30 душно 1011.9 947.1
05 11.10 штиль 0 н/о н/о +24.7 +18.6 69 +29 +29 душно 1011.9 947.0
06 11.10 штиль 0 н/о н/о +23.6 +17.5 69 +28 +28 душно 1011.8 947.3
07 11.10 штиль 0 н/о н/о +22.7 +16.7 69 +27 +27 душно 1013.2 947.8
08 11.10 штиль 0 н/о н/о +22.3 +16.3 69 +27 +27 душно 1013.8 948.2
09 11.10 штиль 0 н/о н/о +22.4 +16.4 69 +27 +27 душно 1014.4 948.8
10 11.10 штиль 0
{1}
н/о н/о +24.5 +18.4 69 +29 +29 душно 1014.7 949.5
11 11.10 штиль 0
{2}
н/о н/о +25.9 +19.7 69 +32 +32 очень
душно
1015.1 950.2
12 11.10 штиль 0 н/о н/о +28.3 +22.0 69 +37 +37 очень
душно
1013.5 949.9 +22.1
13 11.10 штиль 0
{4}
н/о н/о +30.1 +23.8 69 +41 +41 опасность
перегрева
1013.4 949.5
14 11.10 штиль 0
{4}
н/о н/о +32.1 +25.7 69 +47 +47 опасность
перегрева
1012.2 948.8
15 11.10 штиль 0
{3}
н/о н/о +32.4 +25.9 69 +48 +48 опасность
перегрева
1010.5 947.2
16 11.10 штиль 0
{2}
н/о н/о +34.1 +27.5 69 +54 +54 опасность
перегрева
1008.7 945.9
17 11.10 штиль 0
{4}
н/о н/о +34.7 +28.1 69 +56 +56 опасность
перегрева
1007.5 944.9
18 11.10 штиль 0 н/о н/о +35.1 +28.5 69 +57 +57 опасность
перегрева
1006.2 944.4
19 11.10 штиль 0 н/о н/о +34.6 +28.1 69 +56 +56 опасность
перегрева
1006.9 944.3
20 11.10 штиль 0
{1}
н/о н/о +33.4 +26.9 69 +51 +51 опасность
перегрева
1007.6 944.7
21 11.10 штиль 0 н/о н/о +32.5 +26.1 69 +48 +48 опасность
перегрева
1008.3 945.2
22 11.10 штиль 0 н/о н/о +32.1 +25.7 69 +47 +47 опасность
перегрева
1009.2 946.0
23 11.10 штиль 0 н/о н/о +31.1 +24.7 69 +44 +44 опасность
перегрева
1010.3 946.8
00 12.10 штиль 0 н/о н/о +30.4 +24.0 69 +42 +42 опасность
перегрева
1010.5 947.5 +35.6
01 12.10 штиль 0 н/о н/о +29.1 +22.8 69 +39 +39 очень
душно
1011.8 947.8
02 12.10 штиль 0 н/о н/о +28.1 +21.9 69 +36 +36 очень
душно
1011.5 947.3
03 12.10 штиль 0 н/о н/о +26.9 +20.7 69 +34 +34 очень
душно
1011.2 946.8
04 12.10 штиль 0 н/о н/о +26.6 +20.4 69 +33 +33 очень
душно
1011.4 946.9
05 12.10 штиль 0
{3}
н/о н/о +25.1 +18.9 68 +30 +30 душно 1012.1 947.2
06 12.10 штиль 0 н/о н/о +23.6 +17.5 69 +28 +28 душно 1011.9 947.4
07 12.10 штиль 0 н/о н/о +22.6 +16.6 69 +27 +27 душно 1013.5 948.0
08 12.10 штиль 0 н/о н/о +21.8 +15.9 69 +25 +25 комфорт 1014.4 948.7
09 12.10 штиль 0 н/о н/о +22.7 +16.6 68 +27 +27 душно 1014.9 949.3
10 12.10 штиль 0 н/о н/о +24.0 +17.9 69 +28 +28 душно 1015.1 949.8
11 12.10 штиль 0
{2}
н/о н/о +25.2 +19.0 69 +30 +30 душно 1015.4 950.3
12 12.10 штиль 0 н/о н/о +27.2 +21.0 69 +34 +34 очень
душно
1014.2 950.3 +21.8
13 12.10 штиль 0
{2}
н/о н/о +29.8 +23.5 69 +40 +40 очень
душно
1014.3 950.3
14 12.10 штиль 0
{4}
н/о н/о +30.6 +24.2 69 +43 +43 опасность
перегрева
1013.5 949.7
15 12.10 штиль 0
{4}
н/о н/о +31.5 +25.1 69 +45 +45 опасность
перегрева
1011.9 948.4
16 12.10 штиль 0
{2}
н/о н/о +33.0 +26.5 69 +50 +50 опасность
перегрева
1010.4 947.3
17 12.10 штиль 0
{3}
н/о н/о +33.7 +27.2 69 +52 +52 опасность
перегрева
1009.3 946.4
18 12.10 штиль 0 н/о н/о +32.8 +26.3 69 +49 +49 опасность
перегрева
1008.3 945.9
19 12.10 штиль 0 н/о н/о +32.6 +26.1 69 +49 +49 опасность
перегрева
1009.1 946.0
20 12.10 штиль 0 н/о н/о +32.2 +25.7 69 +47 +47 опасность
перегрева
1009.8 946.5
21 12.10 штиль 0 н/о н/о +31.6 +25.2 69 +46 +46 опасность
перегрева
1010.4 947.0
22 12.10 штиль 0 н/о н/о +31.0 +24.6 69 +44 +44 опасность
перегрева
1011.1 947.5
23 12.10 штиль 0 н/о н/о +30.4 +24.1 69 +42 +42 опасность
перегрева
1012.1 948.3
00 13.10 штиль 0 н/о н/о +30.0 +23.7 69 +41 +41 опасность
перегрева
1012.9 949.0
01 13.10 штиль 0 н/о н/о +29.1 +22.8 69 +39 +39 очень
душно
1013.2 949.1
02 13.10 штиль 0 н/о н/о +27.3 +21.1 69 +34 +34 очень
душно
1013.0 948.5
03 13.10 штиль 0 н/о н/о +26.7 +20.5 69 +33 +33 очень
душно
1012.6 948.0
04 13.10 штиль 0 н/о н/о +26.6 +20.4 69 +33 +33 очень
душно
1012.6 948.0
05 13.10 штиль 0 н/о н/о +25.5 +19.3 69 +31 +31 очень
душно
1013.0 948.2
06 13.10 штиль 0 н/о н/о +23.8 +17.8 69 +28 +28 душно 1012.7 948.2
07 13.10 штиль 0 н/о н/о +22.8 +16.8 69 +28 +28 душно 1014.2 948.7
08 13.10 штиль 0 н/о н/о +22.1 +16.1 69 +26 +26 душно 1015.3 949.6
09 13.10 штиль 0 н/о н/о +22.8 +16.8 69 +28 +28 душно 1015.7 950.1
10 13.10 штиль 0 н/о н/о +24.6 +18.5 69 +29 +29 душно 1015.6 950.4
11 13.10 штиль 0 н/о н/о +26.4 +20.2 69 +33 +33 очень
душно
1015.2 950.4
12 13.10 штиль 0 н/о н/о +28.7 +22.4 69 +38 +38 очень
душно
1013.9 950.3 +22.0
13 13.10 штиль 0 н/о н/о +30.9 +24.5 69 +44 +44 опасность
перегрева
1013.7 949.9
14 13.10 штиль 0 н/о н/о +31.8 +25.4 69 +46 +46 опасность
перегрева
1012.6 949.1
15 13.10 штиль 0 н/о н/о +33.0 +26.5 69 +50 +50 опасность
перегрева
1011.0 947.8
16 13.10 штиль 0 н/о н/о +34.2 +27.6 69 +54 +54 опасность
перегрева
1009.3 946.5
17 13.10 штиль 0 н/о н/о +34.8 +28.2 69 +56 +56 опасность
перегрева
1008.2 945.6
18 13.10 штиль 0 н/о н/о +34.9 +28.3 69 +57 +57 опасность
перегрева
1007.0 945.1
19 13.10 штиль 0 н/о н/о +34.9 +28.4 69 +57 +57 опасность
перегрева
1007.9 945.3
20 13.10 штиль 0
{1}
н/о н/о +33.2 +26.7 69 +51 +51 опасность
перегрева
1009.0 946.0
21 13.10 штиль 0 н/о н/о +31.7 +25.3 69 +46 +46 опасность
перегрева
1010.1 946.7
22 13.10 штиль 0 н/о н/о +30.5 +24.1 69 +42 +42 опасность
перегрева
1010.9 947.2
23 13.10 штиль 0 н/о н/о +29.3 +23.0 69 +39 +39 очень
душно
1011.9 947.9
00 14.10 штиль 0 н/о н/о +28.2 +21.9 69 +36 +36 очень
душно
1011.9 948.3 +36.0
01 14.10 штиль 0 н/о н/о +27.0 +20.8 69 +34 +34 очень
душно
1012.9 948.4
02 14.10 штиль 0 н/о н/о +27.1 +20.9 69 +34 +34 очень
душно
1012.7 948.2
03 14.10 штиль 0 н/о н/о +27.2 +21.0 69 +34 +34 очень
душно
1011.9 947.5
04 14.10 штиль 0 н/о н/о +26.9 +20.7 69 +34 +34 очень
душно
1011.8 947.3
05 14.10 штиль 0 н/о н/о +26.0 +19.8 69 +32 +32 очень
душно
1011.8 947.1
06 14.10 штиль 0 н/о н/о +23.9 +17.8 69 +28 +28 душно 1011.9 947.4
07 14.10 штиль 0
{1}
н/о н/о +22.8 +16.8 69 +28 +28 душно 1013.2 947.8
08 14.10 штиль 0 н/о н/о +22.6 +16.6 69 +27 +27 душно 1013.5 948.0
09 14.10 штиль 0 н/о н/о +23.0 +17.0 69 +28 +28 душно 1014.0 948.6
10 14.10 штиль 0
{3}
н/о н/о +24.0 +17.9 69 +28 +28 душно 1014.1 948.9
11 14.10 штиль 0
{1}
н/о н/о +26.9 +20.7 69 +34 +34 очень
душно
1013.7 949.1
12 14.10 штиль 0 н/о н/о +27.8 +21.6 69 +36 +36 очень
душно
1012.4 948.7 +22.5
13 14.10 штиль 0
{3}
н/о н/о +31.0 +24.6 69 +44 +44 опасность
перегрева
1012.4 948.7
14 14.10 штиль 0 н/о н/о +31.5 +25.1 69 +45 +45 опасность
перегрева
1011.7 948.2
15 14.10 штиль 0 н/о н/о +32.0 +25.6 69 +47 +47 опасность
перегрева
1010.3 947.0
16 14.10 штиль 0 н/о н/о +32.7 +26.3 69 +49 +49 опасность
перегрева
1008.7 945.6
17 14.10 штиль 0 н/о н/о +33.8 +27.3 69 +53 +53 опасность
перегрева
1007.4 944.6
18 14.10 штиль 0 н/о н/о +34.0 +27.4 69 +53 +53 опасность
перегрева
1006.3 944.2
19 14.10 штиль 0
{1}
н/о н/о +32.8 +26.4 69 +49 +49 опасность
перегрева
1007.2 944.2
20 14.10 штиль 0 н/о н/о +32.9 +26.5 69 +50 +50 опасность
перегрева
1007.0 944.1
21 14.10 штиль 0 н/о н/о +31.2 +24.8 69 +44 +44 опасность
перегрева
1007.8 944.5
22 14.10 штиль 0 н/о н/о +30.0 +23.7 69 +41 +41 опасность
перегрева
1009.0 945.3
23 14.10 штиль 0 н/о н/о +28.6 +22.4 69 +37 +37 очень
душно
1009.9 945.9
00 15.10 штиль 0 н/о н/о +27.6 +21.4 69 +35 +35 очень
душно
1010.1 946.5 +34.9
01 15.10 штиль 0 н/о н/о +26.8 +20.6 69 +33 +33 очень
душно
1011.3 946.8
02 15.10 штиль 0 н/о н/о +25.7 +19.5 69 +31 +31 очень
душно
1011.2 946.5
03 15.10 штиль 0 н/о н/о +25.4 +19.2 69 +31 +31 очень
душно
1010.9 946.2
04 15.10 штиль 0
{1}
н/о н/о +25.9 +19.7 69 +32 +32 очень
душно
1010.9 946.3
05 15.10 штиль 0
{3}
н/о н/о +24.7 +18.6 69 +29 +29 душно 1011.2 946.3
06 15.10 штиль 0 н/о н/о +23.8 +17.8 69 +28 +28 душно 1011.1 946.7
07 15.10 штиль 0 н/о н/о +23.5 +17.4 69 +27 +27 душно 1012.7 947.5
08 15.10 штиль 0 н/о н/о +23.2 +17.2 69 +28 +28 душно 1013.3 948.0
09 15.10 штиль 0
{1}
н/о н/о +23.3 +17.3 69 +29 +29 душно 1013.9 948.5
10 15.10 штиль 0 н/о н/о +24.2 +18.2 69 +29 +29 душно 1014.3 949.1
11 15.10 штиль 0 н/о н/о +24.5 +18.4 69 +29 +29 душно 1014.8 949.6
12 15.10 штиль 0 н/о н/о +26.1 +19.9 69 +32 +32 очень
душно
1013.6 949.5 +23.0
13 15.10 штиль 0
{1}
н/о н/о +27.9 +21.6 69 +36 +36 очень
душно
1013.1 948.8
14 15.10 штиль 0
{1}
н/о н/о +28.8 +22.5 69 +38 +38 очень
душно
1012.4 948.3
15 15.10 штиль 0 н/о н/о +30.7 +24.3 69 +43 +43 опасность
перегрева
1010.5 946.9
16 15.10 штиль 0 н/о н/о +33.0 +26.5 69 +50 +50 опасность
перегрева
1008.7 945.7
17 15.10 штиль 0 н/о н/о +33.6 +27.1 69 +52 +52 опасность
перегрева
1007.1 944.3
18 15.10 штиль 0 н/о н/о +33.9 +27.3 69 +53 +53 опасность
перегрева
1005.7 943.7
19 15.10 штиль 0 н/о н/о +34.0 +27.5 69 +53 +53 опасность
перегрева
1005.9 943.2
20 15.10 штиль 0
{4}
н/о н/о +28.7 +22.4 69 +38 +38 очень
душно
1007.5 943.7
21 15.10 штиль 0
{4}
н/о н/о +26.6 +20.4 69 +33 +33 очень
душно
1009.4 945.0
22 15.10 штиль 0
{1}
н/о н/о +24.9 +18.8 69 +30 +30 душно 1010.9 946.1
23 15.10 штиль 0 н/о н/о +23.7 +17.7 69 +28 +28 душно 1011.8 946.7
00 16.10 штиль 0 н/о н/о +24.0 +17.9 69 +28 +28 душно 1011.3 946.9 +35.0
01 16.10 штиль 0 н/о н/о +23.7 +17.7 69 +28 +28 душно 1012.2 947.0
02 16.10 штиль 0 н/о н/о +24.0 +18.0 69 +28 +28 душно 1012.1 947.0
03 16.10 штиль 0 н/о н/о +24.1 +18.1 69 +28 +28 душно 1012.3 947.2
04 16.10 штиль 0 н/о н/о +23.6 +17.5 69 +28 +28 душно 1011.8 946.6
05 16.10 штиль 0 н/о н/о +23.4 +17.3 69 +29 +29 душно 1011.4 946.2
06 16.10 штиль 0 н/о н/о +22.9 +16.9 69 +28 +28 душно 1010.8 946.2
07 16.10 штиль 0 н/о н/о +22.5 +16.5 69 +27 +27 душно 1011.7 946.3
08 16.10 штиль 0 н/о н/о +22.9 +16.9 69 +28 +28 душно 1012.2 946.9
09 16.10 штиль 0
{2}
н/о н/о +23.2 +17.2 69 +28 +28 душно 1013.2 947.9
10 16.10 штиль 0
{1}
н/о н/о +24.4 +18.3 69 +29 +29 душно 1013.1 948.0
11 16.10 штиль 0
{4}
н/о н/о +24.7 +18.6 69 +29 +29 душно 1013.9 948.8

 

Местоположение метеостанции Campos Sales (Бразилия): широта -7.08 долгота -40.37 высота над уровнем моря 574 м.

В архиве по умолчанию представлена погода в Campos Sales за последнюю неделю. Архивные данные за месяц целиком и за предыдущие месяцы, начиная с января 2011 года, Вы можете получить, выбрав интересующий диапазон дат из раскрывающегося списка и нажав кнопку "Ввод!".


*Определитесь, кто Вы:
робот инопланетянин человек

Внимание! Время в таблицах - всемирное. Для получения местного времени необходимо прибавить поправку, которая в Campos Sales равна -3 ч.

Смотрите также архив погоды в соседних городах и на ближайших метеорологических станциях:

Погода в Ouricuri (Бразилия) (63 км)
Погода в Picos (Бразилия) (114 км)
Погода в Taua (Бразилия) (118 км)
Погода в Taua (Бразилия) (120 км)
Погода в Barbalha (Бразилия) (121 км)
Погода в Picos (Бразилия) (123 км)
Погода в Barbalha (Бразилия) (124 км)
Погода в Iguatu (Бразилия) (143 км)
Погода в Paulistana (Бразилия) (145 км)
Погода в Valenca do Piaui (Бразилия) (168 км)

Пояснения к столбцам:

Ветер - указаны скорость ветра в м/с - средняя за 10 мин, порывы в срок и между сроками (в фигурных скобках) и направление, откуда дует ветер: С - северный, СВ - северо-восточный, В - восточный, ЮВ - юго-восточный, Ю - южный, ЮЗ - юго-западный, З - западный, СЗ - северо-западный.
Видимость - горизонтальная дальность видимости в метрах или километрах. При видимости от 1 до 10 км при отсутствии осадков обычно наблюдается дымка, при ухудшении видимости до 1 км и менее - туман. В сухую погоду видимость может ухудшаться дымом, пылью или мглою.
Явления - указаны атмосферные явления, наблюдавшиеся в срок или в последний час перед сроком; фигурными скобками обозначены явления, наблюдавшиеся между сроками (за 1-3 часа до срока); квадратными скобками обозначены град или гололедные отложения с указанием их диаметра в мм.
Облачность - указаны через наклонную черту общая и нижняя облачность в баллах и высота нижней границы облаков в метрах; квадратными скобками обозначены формы облаков: Ci - перистые, Cs - перисто-слоистые, Cc - перисто-кучевые, Ac - высококучевые, As - высокослоистые, Sc - слоисто-кучевые, Ns - слоисто-дождевые, Cu - кучевые, Cb - кучево-дождевые. Подробнее классификацию облаков см. в Атласе облаков (PDF).
T - Температура воздуха - температура, измеренная на высоте 2 м над землей.
Td - Температура точки росы - температура, при понижении до которой содержащийся в воздухе водяной пар достигнет насыщения.
f - Относительная влажность воздуха - влажноcть воздуха, измеренная на высоте 2 м над землей.
Te - Эффективная температура - температура, которую ощущает одетый по сезону человек в тени. Характеристика душности погоды. При расчете учитывается влияние влажности воздуха и скорости ветра на теплоощущения человека.
Tes - Эффективная температура на солнце - температура, которую ощущает человек, с поправкой на солнечный нагрев. Характеристика знойности погоды. Зависит от высоты солнца над горизонтом, облачности и скорости ветра. Ночью, в пасмурную погоду, а также при ветре 12 м/с и более поправка равна нулю.
P - Атмосферное давление - приведенное к уровню моря атмосферное давление.
Po - Атмосферное давление - измеренное на уровне метеостанции атмосферное давление.
Tmin - Минимальная температура - минимум температуры воздуха на высоте 2 м над землей.
Tmax - Максимальная температура - максимум температуры воздуха на высоте 2 м над землей.
R - Количество осадков - Количество выпавших осадков за период времени, мм. При наведении курсора мыши на число - период времени, за который выпало указанное количество осадков.
R24 - Количество осадков - Количество выпавших осадков за 24 часа, мм.
S - Снежный покров - Высота снежного покрова, см. При наведении курсора мыши на число - состояние снежного покрова и степень покрытия местности в баллах.